Weather History for Lexington, KY

Change the Weather History Date:

Thursday, November 17, 2011

  Actual Average Record
Temperature  
Mean Temperature 36 °F 46 °F  
Max Temperature 45 °F 55 °F 80 °F (1958)
Min Temperature 26 °F 37 °F 12 °F (1959)
Degree Days  
Heating Degree Days 29 19  
Month to date heating degree days 243 274  
Since 1 July heating degree days 644 600  
Cooling Degree Days 0 0  
Month to date cooling degree days 1 0  
Year to date cooling degree days 1306 1188  
Moisture  
Dew Point 20 °F    
Average Humidity 53    
Maximum Humidity 75    
Minimum Humidity 30    
Precipitation  
Precipitation 0.00 in 0.12 in 2.50 in (1921)
Month to date precipitation 2.28 1.89  
Year to date precipitation 56.52 39.60  
Snow  
Snow 0.00 in 0.00 in 3.00 in (1920)
Month to date snowfall 0.0 0.1  
Since 1 July snowfall 0.0 0.1  
Since 1 September snowfall 0.0 0.1  
Snow Depth 0.00 in    
Sea Level Pressure  
Sea Level Pressure 30.25 in    
Wind  
Wind Speed 8 mph (WNW)    
Max Wind Speed 23 mph    
Max Gust Speed 32 mph    
Visibility 10 miles    
Events      
T = Trace of Precipitation, MM = Missing Value Source: NWS Daily Summary

Daily Weather History Graph

Daily Weather History Graph

Search for Another Location

Airport:

Trip Planner

Search our weather history database for the weather conditions in past years. The results will help you decide how hot, cold, wet, or windy it might be!

Date:

Astronomy

Nov. 17, 2011 Rise Set
Actual Time 7:21 AM EST 5:25 PM EST
Civil Twilight 6:52 AM EST 5:53 PM EST
Nautical Twilight 6:20 AM EST 6:25 PM EST
Astronomical Twilight 5:49 AM EST 6:56 PM EST
Moon 11:42 PM EST (11/17) 12:31 PM EST (11/17)
Length of Visible Light 11h 00m
Length of Day
10h 04m
Waning Gibbous, 60% of the Moon is Illuminated
Nov 17
Waning Gibbous
Nov 18
Last Quarter
Nov 25
New
Dec 2
First Quarter
Dec 10
Full

Hourly Weather History & Observations

Time (EST) Temp. Windchill Dew Point Humidity Pressure Visibility Wind Dir Wind Speed Gust Speed Precip Events Conditions
12:54 AM 35.1 °F 31.0 °F 28.9 °F 78% 30.11 in 10.0 mi NNW 4.6 mph - N/A   Clear
1:54 AM 35.1 °F 27.9 °F 28.0 °F 76% 30.12 in 10.0 mi NNW 9.2 mph - N/A   Clear
2:54 AM 35.1 °F 27.4 °F 28.0 °F 76% 30.12 in 10.0 mi North 10.4 mph - N/A   Partly Cloudy
3:54 AM 34.0 °F 28.0 °F 27.0 °F 75% 30.15 in 10.0 mi NNW 6.9 mph - N/A   Clear
4:54 AM 33.8 °F 27.0 °F 26.6 °F 75% 30.14 in 10.0 mi NNW 8.1 mph - N/A   Clear
5:54 AM 33.1 °F 27.7 °F 26.1 °F 75% 30.17 in 10.0 mi NNW 5.8 mph - N/A   Scattered Clouds
6:54 AM 33.8 °F 29.6 °F 26.6 °F 75% 30.19 in 10.0 mi NW 4.6 mph - N/A   Mostly Cloudy
7:54 AM 34.0 °F 28.8 °F 26.1 °F 73% 30.23 in 10.0 mi NW 5.8 mph - N/A   Overcast
8:54 AM 37.0 °F 31.6 °F 26.1 °F 65% 30.25 in 10.0 mi NW 6.9 mph - N/A   Overcast
9:54 AM 37.4 °F 30.3 °F 21.2 °F 52% 30.24 in 10.0 mi WNW 10.4 mph - N/A   Overcast
10:54 AM 39.9 °F 33.4 °F 19.9 °F 45% 30.27 in 10.0 mi West 10.4 mph - N/A   Partly Cloudy
11:54 AM 42.1 °F 36.1 °F 19.9 °F 41% 30.25 in 10.0 mi West 10.4 mph 18.4 mph N/A   Clear
12:54 PM 43.0 °F 36.4 °F 19.9 °F 40% 30.24 in 10.0 mi West 12.7 mph 23.0 mph N/A   Clear
1:54 PM 44.1 °F 37.1 °F 18.0 °F 35% 30.24 in 10.0 mi West 15.0 mph 23.0 mph N/A   Scattered Clouds
2:54 PM 44.1 °F 37.4 °F 18.0 °F 35% 30.24 in 10.0 mi WNW 13.8 mph 23.0 mph N/A   Partly Cloudy
3:54 PM 43.0 °F 34.5 °F 14.0 °F 31% 30.26 in 10.0 mi WNW 19.6 mph 27.6 mph N/A   Clear
4:54 PM 41.0 °F 33.5 °F 12.0 °F 31% 30.30 in 10.0 mi WNW 13.8 mph 23.0 mph N/A   Clear
5:54 PM 37.0 °F 31.0 °F 10.9 °F 34% 30.33 in 10.0 mi WNW 8.1 mph - N/A   Clear
6:54 PM 35.1 °F 30.1 °F 12.9 °F 40% 30.35 in 10.0 mi WNW 5.8 mph - N/A   Clear
7:54 PM 34.0 °F 29.8 °F 12.9 °F 42% 30.36 in 10.0 mi NW 4.6 mph - N/A   Clear
8:54 PM 32.0 °F - 15.1 °F 50% 30.37 in 10.0 mi Calm Calm - N/A   Clear
9:54 PM 30.0 °F 26.5 °F 16.0 °F 56% 30.39 in 10.0 mi SSW 3.5 mph - N/A   Clear
10:54 PM 28.0 °F 21.7 °F 17.1 °F 63% 30.39 in 10.0 mi South 5.8 mph - N/A   Clear
11:54 PM 27.0 °F 21.6 °F 17.1 °F 66% 30.39 in 10.0 mi SSW 4.6 mph - N/A   Clear